THY15Y BIKF-LTFM

Flight info

Callsign THY15Y
Flight time N/A
Altitude 37000
Route OSKUM3A OSKUM DCT 62N010W DCT NALAN/N0488F370 DCT LAMRO DCT ARTEX DCT VAXIT DCT DOREV DCT ATTUS DCT BUMIL M748 HDO/N0479F390 DCT ODNEM DCT ERGOM DCT TIMUR DCT XANEX L606 GASRU T390 RILEX
Aircraft B77W/H-SDE1E2E3FGHIJ2J3J4J5M1RWXY/LB1D1

Departure

Time 2026-05-06 14:35
Airport Keflavik International Airport (BIKF)

Arrival

Time N/A
Airport İstanbul Airport (LTFM)
Time Latitude Longitude Altitude Speed Heading
2026-05-06 13:50 63.99275 -22.62308 166 ft 0 kts 359°
2026-05-06 14:24 63.99254 -22.62307 159 ft 4 kts 359°
2026-05-06 14:24 63.99230 -22.62306 169 ft 1 kts 359°
2026-05-06 14:24 63.99206 -22.62308 169 ft 4 kts
2026-05-06 14:24 63.99179 -22.62319 169 ft 4 kts 17°
2026-05-06 14:25 63.99155 -22.62339 169 ft 2 kts 24°
2026-05-06 14:25 63.99154 -22.62341 168 ft 0 kts 24°
2026-05-06 14:27 63.99161 -22.62318 169 ft 7 kts 58°
2026-05-06 14:27 63.99171 -22.62081 169 ft 22 kts 90°
2026-05-06 14:28 63.99172 -22.61688 170 ft 25 kts 90°
2026-05-06 14:28 63.99171 -22.61324 172 ft 21 kts 89°
2026-05-06 14:28 63.99162 -22.61008 173 ft 10 kts 121°
2026-05-06 14:28 63.99079 -22.60950 171 ft 16 kts 178°
2026-05-06 14:29 63.98940 -22.60951 168 ft 24 kts 179°
2026-05-06 14:29 63.98777 -22.60948 164 ft 25 kts 179°
2026-05-06 14:29 63.98634 -22.60943 161 ft 20 kts 179°
2026-05-06 14:29 63.98470 -22.60938 159 ft 27 kts 179°
2026-05-06 14:30 63.98283 -22.60942 156 ft 24 kts 182°
2026-05-06 14:30 63.98096 -22.60947 154 ft 30 kts 180°
2026-05-06 14:30 63.97922 -22.60949 153 ft 18 kts 180°
2026-05-06 14:30 63.97809 -22.60948 153 ft 15 kts 180°
2026-05-06 14:31 63.97690 -22.60945 152 ft 20 kts 179°
2026-05-06 14:31 63.97570 -22.60946 151 ft 17 kts 180°
2026-05-06 14:31 63.97429 -22.60947 150 ft 15 kts 181°
2026-05-06 14:31 63.97302 -22.60949 149 ft 21 kts 181°
2026-05-06 14:32 63.97130 -22.60949 149 ft 28 kts 179°
2026-05-06 14:32 63.96955 -22.60947 147 ft 25 kts 179°
2026-05-06 14:32 63.96783 -22.60944 146 ft 24 kts 180°
2026-05-06 14:32 63.96654 -22.60943 146 ft 15 kts 180°
2026-05-06 14:33 63.96539 -22.60944 145 ft 16 kts 178°
2026-05-06 14:33 63.96477 -22.60890 145 ft 10 kts 124°
2026-05-06 14:33 63.96467 -22.60823 145 ft 1 kts 101°
2026-05-06 14:33 63.96462 -22.60762 144 ft 7 kts 98°
2026-05-06 14:34 63.96469 -22.60611 144 ft 10 kts 66°
2026-05-06 14:34 63.96532 -22.60545 145 ft 5 kts 359°
2026-05-06 14:34 63.96533 -22.60545 145 ft 0 kts 360°
2026-05-06 14:35 63.96717 -22.60545 148 ft 76 kts
2026-05-06 14:35 63.97628 -22.60514 244 ft 180 kts
2026-05-06 14:35 63.99002 -22.60546 1013 ft 203 kts
2026-05-06 14:35 64.00379 -22.60550 2130 ft 188 kts
2026-05-06 14:36 64.01683 -22.60492 3018 ft 194 kts
2026-05-06 14:36 64.03134 -22.60359 3260 ft 222 kts 11°
2026-05-06 14:36 64.04592 -22.59055 3804 ft 232 kts 36°
2026-05-06 14:36 64.05687 -22.56419 4810 ft 228 kts 57°
2026-05-06 14:37 64.06322 -22.53095 5641 ft 237 kts 79°
2026-05-06 14:37 64.06361 -22.49294 6336 ft 244 kts 88°
2026-05-06 14:37 64.06338 -22.45392 7137 ft 247 kts 88°
2026-05-06 14:37 64.06200 -22.41436 7830 ft 256 kts 103°
2026-05-06 14:38 64.05712 -22.38957 8269 ft 262 kts 115°
2026-05-06 14:38 64.04790 -22.35277 8939 ft 271 kts 116°
2026-05-06 14:38 64.03547 -22.30337 10134 ft 273 kts 117°
2026-05-06 14:38 64.02898 -22.27755 10490 ft 283 kts 117°
2026-05-06 14:39 64.01527 -22.22291 10808 ft 317 kts 116°
2026-05-06 14:39 64.00387 -22.17738 11003 ft 344 kts 117°
2026-05-06 14:39 63.99570 -22.14483 11379 ft 353 kts 116°
2026-05-06 14:39 63.98338 -22.09589 12216 ft 361 kts 117°
2026-05-06 14:40 63.97077 -22.04591 13232 ft 366 kts 116°
2026-05-06 14:40 63.95802 -21.99538 14238 ft 371 kts 116°
2026-05-06 14:40 63.94523 -21.94475 15217 ft 374 kts 117°
2026-05-06 14:40 63.93223 -21.89334 16251 ft 377 kts 117°
2026-05-06 14:41 63.91905 -21.84129 17154 ft 383 kts 117°
2026-05-06 14:41 63.90562 -21.78844 18033 ft 389 kts 117°
2026-05-06 14:41 63.89201 -21.73501 18872 ft 394 kts 117°
2026-05-06 14:41 63.87815 -21.68074 19678 ft 398 kts 117°
2026-05-06 14:42 63.86423 -21.62641 20483 ft 402 kts 117°
2026-05-06 14:42 63.85008 -21.57129 21254 ft 406 kts 117°
2026-05-06 14:42 63.83575 -21.51564 22020 ft 411 kts 117°
2026-05-06 14:42 63.82127 -21.45957 22800 ft 415 kts 117°
2026-05-06 14:43 63.80663 -21.40296 23555 ft 419 kts 117°
2026-05-06 14:43 63.79178 -21.34564 24189 ft 423 kts 117°
2026-05-06 14:43 63.77681 -21.28805 24715 ft 429 kts 117°
2026-05-06 14:43 63.76293 -21.22812 25209 ft 431 kts 108°
2026-05-06 14:44 63.75635 -21.16247 25682 ft 428 kts 95°
2026-05-06 14:44 63.75294 -21.09507 26121 ft 435 kts 95°
2026-05-06 14:44 63.74932 -21.02670 26572 ft 442 kts 95°
2026-05-06 14:45 63.74132 -20.89123 27555 ft 451 kts 96°
2026-05-06 14:45 63.73691 -20.82158 28001 ft 456 kts 96°
2026-05-06 14:45 63.73224 -20.74941 28434 ft 461 kts 96°
2026-05-06 14:45 63.72759 -20.67846 28842 ft 466 kts 96°
2026-05-06 14:46 63.72281 -20.60575 29242 ft 470 kts 96°
2026-05-06 14:46 63.71798 -20.53251 29646 ft 474 kts 97°
2026-05-06 14:46 63.71306 -20.45867 30068 ft 477 kts 97°
2026-05-06 14:46 63.70699 -20.38508 30428 ft 480 kts 101°
2026-05-06 14:47 63.69880 -20.31183 30785 ft 482 kts 103°
2026-05-06 14:47 63.68960 -20.23899 31161 ft 483 kts 104°
2026-05-06 14:47 63.68006 -20.16627 31530 ft 484 kts 105°
2026-05-06 14:47 63.67053 -20.09345 31885 ft 486 kts 104°
2026-05-06 14:48 63.66110 -20.02020 32242 ft 487 kts 104°
2026-05-06 14:48 63.65229 -19.95058 32588 ft 488 kts 104°
2026-05-06 14:48 63.64309 -19.87703 32930 ft 489 kts 104°
2026-05-06 14:48 63.63391 -19.80321 33299 ft 490 kts 104°
2026-05-06 14:49 63.62473 -19.72942 33649 ft 492 kts 104°
2026-05-06 14:49 63.60601 -19.57954 34023 ft 501 kts 105°
2026-05-06 14:49 63.59651 -19.50426 34378 ft 500 kts 104°
2026-05-06 14:50 63.58696 -19.42913 34577 ft 503 kts 104°
2026-05-06 14:50 63.57731 -19.35347 34875 ft 503 kts 104°
2026-05-06 14:50 63.56767 -19.27832 35261 ft 500 kts 105°
2026-05-06 14:50 63.55797 -19.20320 35525 ft 501 kts 104°
2026-05-06 14:51 63.54820 -19.12774 35676 ft 504 kts 105°
2026-05-06 14:51 63.53841 -19.05238 36070 ft 501 kts 105°
2026-05-06 14:51 63.52913 -18.98136 36365 ft 501 kts 104°
2026-05-06 14:51 63.51927 -18.90633 36593 ft 503 kts 104°
2026-05-06 14:52 63.50933 -18.83103 36797 ft 504 kts 105°
2026-05-06 14:52 63.48924 -18.67974 36866 ft 508 kts 105°
2026-05-06 14:53 63.46898 -18.52849 36866 ft 504 kts 105°
2026-05-06 14:53 63.44892 -18.38028 36849 ft 501 kts 105°
2026-05-06 14:53 63.43881 -18.30608 37182 ft 497 kts 106°
2026-05-06 14:54 63.42863 -18.23165 37132 ft 503 kts 105°
2026-05-06 14:54 63.40800 -18.08178 37171 ft 507 kts 105°
2026-05-06 14:55 63.38773 -17.93595 37162 ft 504 kts 106°
2026-05-06 14:55 63.36683 -17.78687 37178 ft 502 kts 106°
2026-05-06 14:56 63.34583 -17.63846 37166 ft 503 kts 106°
2026-05-06 14:56 63.32462 -17.48989 37168 ft 505 kts 107°
2026-05-06 14:57 63.30314 -17.34074 37143 ft 507 kts 106°
2026-05-06 14:57 63.28151 -17.19166 37155 ft 508 kts 107°
2026-05-06 14:58 63.25958 -17.04204 37160 ft 509 kts 107°
2026-05-06 14:58 63.23808 -16.89660 37165 ft 509 kts 107°
2026-05-06 14:59 63.21586 -16.74752 37156 ft 508 kts 108°
2026-05-06 14:59 63.19373 -16.60020 37146 ft 506 kts 108°
2026-05-06 15:00 63.17133 -16.45235 37160 ft 506 kts 108°
2026-05-06 15:00 63.14879 -16.30492 37143 ft 506 kts 108°
2026-05-06 15:01 63.12602 -16.15709 37147 ft 507 kts 108°
2026-05-06 15:01 63.10308 -16.00940 37145 ft 510 kts 108°
2026-05-06 15:02 63.08045 -15.86496 37139 ft 511 kts 109°
2026-05-06 15:02 63.05704 -15.71680 37139 ft 512 kts 109°
2026-05-06 15:03 63.03346 -15.56870 37127 ft 510 kts 109°
2026-05-06 15:03 63.01004 -15.42279 37128 ft 509 kts 109°
2026-05-06 15:04 62.98642 -15.27683 37130 ft 508 kts 109°
2026-05-06 15:04 62.96250 -15.13015 37140 ft 510 kts 109°
2026-05-06 15:05 62.93897 -14.98702 37107 ft 511 kts 110°
2026-05-06 15:05 62.91463 -14.84017 37123 ft 513 kts 110°
2026-05-06 15:06 62.89006 -14.69306 37112 ft 514 kts 110°
2026-05-06 15:06 62.86546 -14.54693 37113 ft 513 kts 110°
2026-05-06 15:07 62.84063 -14.40060 37107 ft 513 kts 110°
2026-05-06 15:07 62.81568 -14.25470 37122 ft 512 kts 110°
2026-05-06 15:08 62.79050 -14.10854 37109 ft 514 kts 110°
2026-05-06 15:08 62.76577 -13.96609 37093 ft 514 kts 111°
2026-05-06 15:09 62.74026 -13.82035 37099 ft 514 kts 111°
2026-05-06 15:09 62.71471 -13.67542 37087 ft 516 kts 111°
2026-05-06 15:10 62.68880 -13.52955 37097 ft 517 kts 111°
2026-05-06 15:10 62.66268 -13.38358 37087 ft 516 kts 111°
2026-05-06 15:11 62.63640 -13.23783 37100 ft 520 kts 112°
2026-05-06 15:11 62.61000 -13.09254 37074 ft 514 kts 112°
2026-05-06 15:12 62.58418 -12.95147 37080 ft 516 kts 112°
2026-05-06 15:12 62.55761 -12.80741 37092 ft 513 kts 112°
2026-05-06 15:13 62.53075 -12.66273 37068 ft 518 kts 112°
2026-05-06 15:13 62.50367 -12.51799 37078 ft 518 kts 112°
2026-05-06 15:14 62.47647 -12.37376 37072 ft 517 kts 112°
2026-05-06 15:14 62.44928 -12.23050 37058 ft 514 kts 113°
2026-05-06 15:15 62.42201 -12.08786 37063 ft 514 kts 113°
2026-05-06 15:15 62.39526 -11.94899 37070 ft 515 kts 113°
2026-05-06 15:16 62.36754 -11.80609 37066 ft 517 kts 113°
2026-05-06 15:16 62.33977 -11.66386 37064 ft 517 kts 114°
2026-05-06 15:17 62.31174 -11.52140 37054 ft 516 kts 114°
2026-05-06 15:17 62.28366 -11.37967 37046 ft 515 kts 114°
2026-05-06 15:18 62.25544 -11.23821 37059 ft 514 kts 114°
2026-05-06 15:18 62.22733 -11.09825 37054 ft 514 kts 114°
2026-05-06 15:19 62.19967 -10.96148 37050 ft 515 kts 114°
2026-05-06 15:19 62.17103 -10.82086 37049 ft 515 kts 114°
2026-05-06 15:20 62.14229 -10.68063 37054 ft 515 kts 114°
2026-05-06 15:20 62.11335 -10.54042 37024 ft 514 kts 115°
2026-05-06 15:21 62.08435 -10.40086 37044 ft 514 kts 115°
2026-05-06 15:21 62.05526 -10.26180 37046 ft 513 kts 115°
2026-05-06 15:22 62.02600 -10.12277 37038 ft 513 kts 115°
2026-05-06 15:22 61.99764 -9.98897 37040 ft 513 kts 115°
2026-05-06 15:23 61.96684 -9.85196 37040 ft 513 kts 117°
2026-05-06 15:23 61.93514 -9.71612 37026 ft 513 kts 117°
2026-05-06 15:24 61.90870 -9.60309 37038 ft 513 kts 117°
2026-05-06 15:24 61.87698 -9.46723 37029 ft 514 kts 117°
2026-05-06 15:25 61.84523 -9.33161 37030 ft 514 kts 117°
2026-05-06 15:25 61.81328 -9.19599 37034 ft 515 kts 117°
2026-05-06 15:26 61.78111 -9.06030 37036 ft 516 kts 118°
2026-05-06 15:26 61.74965 -8.92852 37030 ft 516 kts 118°
2026-05-06 15:27 61.71718 -8.79328 37031 ft 517 kts 118°
2026-05-06 15:27 61.68457 -8.65834 37033 ft 517 kts 118°
2026-05-06 15:28 61.65182 -8.52362 37017 ft 516 kts 118°
2026-05-06 15:28 61.61897 -8.38934 37026 ft 516 kts 118°
2026-05-06 15:29 61.58599 -8.25534 37025 ft 517 kts 118°
2026-05-06 15:29 61.55304 -8.12227 37028 ft 517 kts 118°
2026-05-06 15:30 61.52062 -7.99211 37027 ft 517 kts 119°
2026-05-06 15:30 61.48722 -7.85885 37019 ft 517 kts 119°
2026-05-06 15:31 61.45361 -7.72552 37016 ft 517 kts 119°
2026-05-06 15:31 61.41989 -7.59260 37015 ft 517 kts 119°
2026-05-06 15:32 61.36909 -7.39380 37018 ft 517 kts 119°
2026-05-06 15:32 61.33510 -7.26178 37019 ft 517 kts 120°
2026-05-06 15:33 61.30123 -7.13099 37018 ft 517 kts 120°
2026-05-06 15:33 61.26700 -6.99956 37024 ft 517 kts 120°
2026-05-06 15:34 61.23350 -6.87172 37025 ft 517 kts 120°
2026-05-06 15:34 61.19903 -6.74092 37025 ft 517 kts 120°
2026-05-06 15:35 61.16437 -6.61015 37009 ft 517 kts 120°
2026-05-06 15:35 61.12961 -6.47975 37028 ft 517 kts 120°
2026-05-06 15:36 61.09473 -6.34968 37032 ft 517 kts 121°
2026-05-06 15:36 61.05966 -6.21965 37045 ft 518 kts 121°
2026-05-06 15:37 61.02438 -6.08947 37035 ft 519 kts 121°
2026-05-06 15:37 60.98961 -5.96675 37031 ft 518 kts 126°
2026-05-06 15:38 60.94851 -5.84491 37034 ft 517 kts 127°
2026-05-06 15:38 60.90689 -5.72414 37004 ft 517 kts 127°
2026-05-06 15:39 60.86537 -5.60337 37032 ft 518 kts 127°
2026-05-06 15:39 60.82394 -5.48265 37036 ft 519 kts 127°
2026-05-06 15:40 60.78229 -5.36168 37029 ft 520 kts 127°
2026-05-06 15:40 60.74050 -5.24096 37033 ft 520 kts 127°
2026-05-06 15:41 60.69851 -5.12035 37031 ft 520 kts 127°
2026-05-06 15:41 60.65639 -5.00001 36999 ft 520 kts 128°
2026-05-06 15:42 60.61548 -4.88373 37028 ft 520 kts 128°
2026-05-06 15:42 60.57318 -4.76411 37032 ft 521 kts 128°
2026-05-06 15:43 60.53075 -4.64474 37036 ft 521 kts 128°
2026-05-06 15:43 60.48817 -4.52557 37030 ft 522 kts 128°
2026-05-06 15:44 60.44544 -4.40655 37030 ft 522 kts 128°
2026-05-06 15:44 60.40266 -4.28804 37030 ft 522 kts 128°
2026-05-06 15:45 60.35971 -4.16960 37027 ft 521 kts 129°
2026-05-06 15:45 60.32657 -4.07870 37027 ft 521 kts 129°
2026-05-06 15:46 60.28491 -3.96490 37040 ft 521 kts 128°
2026-05-06 15:46 60.24174 -3.84752 37033 ft 521 kts 129°
2026-05-06 15:47 60.19845 -3.73040 37033 ft 521 kts 129°
2026-05-06 15:47 60.15502 -3.61351 37033 ft 522 kts 129°
2026-05-06 15:48 60.11155 -3.49708 37009 ft 521 kts 129°
2026-05-06 15:48 60.06795 -3.38089 37037 ft 521 kts 129°
2026-05-06 15:49 60.02418 -3.26484 37038 ft 521 kts 129°
2026-05-06 15:49 59.98072 -3.15017 37023 ft 521 kts 129°
2026-05-06 15:50 59.93659 -3.03431 37046 ft 520 kts 129°
2026-05-06 15:50 59.89413 -2.92338 37043 ft 520 kts 130°
2026-05-06 15:51 59.84988 -2.80833 36998 ft 520 kts 130°
2026-05-06 15:51 59.80618 -2.69525 37032 ft 519 kts 130°
2026-05-06 15:52 59.76207 -2.58167 37051 ft 518 kts 130°
2026-05-06 15:52 59.71790 -2.46849 37042 ft 518 kts 130°
2026-05-06 15:53 59.67366 -2.35568 37043 ft 518 kts 130°
2026-05-06 15:53 59.62934 -2.24321 37042 ft 518 kts 130°
2026-05-06 15:54 59.58496 -2.13111 37049 ft 518 kts 130°
2026-05-06 15:54 59.54074 -2.01997 37042 ft 517 kts 130°
2026-05-06 15:55 59.49747 -1.91171 37041 ft 518 kts 131°
2026-05-06 15:55 59.45280 -1.80046 37048 ft 518 kts 131°
2026-05-06 15:56 59.40799 -1.68942 37046 ft 518 kts 131°
2026-05-06 15:56 59.36323 -1.57902 37045 ft 518 kts 131°
2026-05-06 15:57 59.31829 -1.46870 37047 ft 518 kts 131°
2026-05-06 15:57 59.27331 -1.35878 37053 ft 517 kts 131°
2026-05-06 15:58 59.22815 -1.24898 37055 ft 519 kts 131°
2026-05-06 15:58 59.18279 -1.13919 37050 ft 519 kts 132°
2026-05-06 15:59 59.13732 -1.02962 37052 ft 520 kts 132°
2026-05-06 15:59 59.09312 -0.92362 37038 ft 520 kts 132°
2026-05-06 16:00 59.04736 -0.81439 37056 ft 520 kts 132°
2026-05-06 16:00 59.00162 -0.70569 37045 ft 520 kts 132°
2026-05-06 16:01 58.95609 -0.59802 37053 ft 520 kts 132°
2026-05-06 16:01 58.90992 -0.48933 37056 ft 520 kts 132°
2026-05-06 16:02 58.86407 -0.38190 37054 ft 520 kts 133°
2026-05-06 16:02 58.81790 -0.27421 37055 ft 521 kts 133°
2026-05-06 16:03 58.77164 -0.16680 37057 ft 521 kts 133°
2026-05-06 16:03 58.72525 -0.05958 37057 ft 520 kts 133°
2026-05-06 16:04 58.68011 0.04428 37058 ft 520 kts 133°
2026-05-06 16:04 58.63360 0.15082 37059 ft 519 kts 133°
2026-05-06 16:05 58.58712 0.25679 37062 ft 519 kts 133°
2026-05-06 16:05 58.54058 0.36243 37063 ft 519 kts 133°
2026-05-06 16:06 58.49398 0.46773 37063 ft 518 kts 133°
2026-05-06 16:06 58.44733 0.57266 37061 ft 518 kts 134°
2026-05-06 16:07 58.40089 0.67666 37063 ft 517 kts 134°
2026-05-06 16:07 58.35410 0.78096 37066 ft 517 kts 134°
2026-05-06 16:08 58.31482 0.86817 37068 ft 517 kts 134°
2026-05-06 16:08 58.26792 0.97190 37069 ft 518 kts 134°
2026-05-06 16:09 58.22229 1.07234 37071 ft 518 kts 134°
2026-05-06 16:09 58.17516 1.17567 37062 ft 517 kts 134°
2026-05-06 16:10 58.12781 1.27901 37062 ft 516 kts 134°
2026-05-06 16:10 58.08111 1.38047 37069 ft 515 kts 134°
2026-05-06 16:11 58.03404 1.48229 37070 ft 514 kts 135°
2026-05-06 16:11 57.98710 1.58340 37071 ft 513 kts 135°
2026-05-06 16:12 57.93990 1.68464 37071 ft 513 kts 135°
2026-05-06 16:12 57.89279 1.78523 37056 ft 512 kts 135°
2026-05-06 16:13 57.84568 1.88540 37065 ft 511 kts 135°
2026-05-06 16:13 57.79865 1.98498 37065 ft 509 kts 135°
2026-05-06 16:14 57.75266 2.08193 37071 ft 509 kts 135°
2026-05-06 16:14 57.70559 2.18074 37070 ft 509 kts 135°
2026-05-06 16:15 57.65873 2.27871 37069 ft 508 kts 135°
2026-05-06 16:15 57.61121 2.37763 37062 ft 508 kts 135°
2026-05-06 16:16 57.56403 2.47545 37066 ft 507 kts 136°
2026-05-06 16:16 57.51707 2.57241 37063 ft 506 kts 136°
2026-05-06 16:17 57.46995 2.66928 37066 ft 505 kts 136°
2026-05-06 16:17 57.42277 2.76587 37065 ft 504 kts 136°
2026-05-06 16:18 57.37558 2.86208 37065 ft 504 kts 136°
2026-05-06 16:18 57.32836 2.95795 37051 ft 503 kts 136°
2026-05-06 16:19 57.28244 3.05084 37062 ft 502 kts 136°
2026-05-06 16:19 57.23557 3.14526 37062 ft 501 kts 136°
2026-05-06 16:20 57.18829 3.24010 37062 ft 501 kts 136°
2026-05-06 16:20 57.14107 3.33445 37062 ft 501 kts 136°
2026-05-06 16:21 57.09378 3.42861 37057 ft 501 kts 136°
2026-05-06 16:21 57.04650 3.52279 37041 ft 501 kts 134°
2026-05-06 16:22 57.00529 3.62650 37049 ft 506 kts 124°
2026-05-06 16:22 56.96953 3.73681 37055 ft 507 kts 124°
2026-05-06 16:23 56.93317 3.84722 37055 ft 507 kts 125°
2026-05-06 16:23 56.89631 3.95711 37055 ft 507 kts 125°
2026-05-06 16:24 56.86018 4.06421 37049 ft 507 kts 125°
2026-05-06 16:24 56.82309 4.17371 37044 ft 506 kts 125°
2026-05-06 16:25 56.78595 4.28294 37040 ft 506 kts 126°
2026-05-06 16:25 56.74878 4.39177 37042 ft 505 kts 126°
2026-05-06 16:26 56.71161 4.50016 37044 ft 504 kts 126°
2026-05-06 16:26 56.67431 4.60839 37045 ft 504 kts 126°
2026-05-06 16:27 56.63707 4.71598 37031 ft 503 kts 126°
2026-05-06 16:27 56.59973 4.82340 37034 ft 502 kts 126°
2026-05-06 16:28 56.56257 4.92987 37033 ft 502 kts 126°
2026-05-06 16:28 56.52590 5.03393 37030 ft 502 kts 127°
2026-05-06 16:29 56.48712 5.13894 37027 ft 502 kts 128°
2026-05-06 16:29 56.44788 5.24340 37017 ft 501 kts 128°
2026-05-06 16:30 56.41526 5.33031 37016 ft 501 kts 128°
2026-05-06 16:30 56.36957 5.45209 37024 ft 502 kts 128°
2026-05-06 16:31 56.33036 5.55628 37022 ft 502 kts 128°
2026-05-06 16:31 56.29109 5.66016 37022 ft 502 kts 128°
2026-05-06 16:32 56.25192 5.76330 37013 ft 502 kts 128°
2026-05-06 16:32 56.21239 5.86695 37020 ft 501 kts 128°
2026-05-06 16:33 56.17285 5.97017 37012 ft 501 kts 128°
2026-05-06 16:34 56.11448 6.12179 37011 ft 500 kts 128°
2026-05-06 16:34 56.07486 6.22415 37008 ft 500 kts 128°
2026-05-06 16:35 56.03515 6.32632 37000 ft 499 kts 128°
2026-05-06 16:35 55.99553 6.42783 37008 ft 498 kts 129°
2026-05-06 16:36 55.95591 6.52893 37008 ft 498 kts 129°
2026-05-06 16:36 55.91614 6.63000 36998 ft 497 kts 129°
2026-05-06 16:37 55.87654 6.73021 37004 ft 497 kts 129°
2026-05-06 16:37 55.83655 6.83099 36981 ft 497 kts 129°
2026-05-06 16:38 55.79664 6.93118 36992 ft 497 kts 129°
2026-05-06 16:38 55.75757 7.02885 36984 ft 497 kts 129°
2026-05-06 16:39 55.71740 7.12888 36984 ft 497 kts 129°
2026-05-06 16:39 55.67743 7.22801 36979 ft 497 kts 129°
2026-05-06 16:40 55.63709 7.32763 36971 ft 497 kts 129°
2026-05-06 16:40 55.59676 7.42688 36968 ft 496 kts 129°
2026-05-06 16:41 55.55644 7.52574 36968 ft 496 kts 129°
2026-05-06 16:41 55.51427 7.62153 36959 ft 491 kts 136°
2026-05-06 16:42 55.46812 7.71027 36956 ft 490 kts 136°
2026-05-06 16:42 55.42171 7.79854 36935 ft 490 kts 136°
2026-05-06 16:43 55.37562 7.88673 36954 ft 490 kts 136°
2026-05-06 16:43 55.32961 7.97490 36959 ft 489 kts 136°
2026-05-06 16:44 55.28496 8.06021 36926 ft 489 kts 136°
2026-05-06 16:44 55.23875 8.14815 36929 ft 489 kts 136°
2026-05-06 16:45 55.19256 8.23571 36935 ft 489 kts 136°
2026-05-06 16:45 55.14636 8.32295 36931 ft 489 kts 136°
2026-05-06 16:46 55.10005 8.41008 36933 ft 489 kts 136°
2026-05-06 16:46 55.05372 8.49694 36921 ft 489 kts 136°
2026-05-06 16:47 55.00725 8.58376 36915 ft 489 kts 137°
2026-05-06 16:47 54.96085 8.67015 36914 ft 489 kts 137°
2026-05-06 16:48 54.91436 8.75641 36891 ft 488 kts 136°
2026-05-06 16:48 54.86535 8.83646 36909 ft 485 kts 143°
2026-05-06 16:49 54.81388 8.91188 36918 ft 485 kts 143°
2026-05-06 16:49 54.76222 8.98731 36911 ft 485 kts 143°
2026-05-06 16:50 54.71203 9.06098 36910 ft 485 kts 143°
2026-05-06 16:50 54.66055 9.13657 36891 ft 486 kts 143°
2026-05-06 16:51 54.60919 9.21181 36891 ft 485 kts 143°
2026-05-06 16:51 54.56638 9.27430 36899 ft 484 kts 143°
2026-05-06 16:52 54.51494 9.34911 36898 ft 484 kts 143°
2026-05-06 16:52 54.46349 9.42369 36926 ft 483 kts 143°
2026-05-06 16:53 54.41196 9.49812 36905 ft 483 kts 143°
2026-05-06 16:53 54.36056 9.57211 36869 ft 483 kts 143°
2026-05-06 16:54 54.30903 9.64605 36876 ft 483 kts 143°
2026-05-06 16:54 54.25761 9.71957 36886 ft 483 kts 143°
2026-05-06 16:55 54.20601 9.79311 36885 ft 483 kts 143°
2026-05-06 16:55 54.15437 9.86646 36892 ft 483 kts 143°
2026-05-06 16:56 54.10306 9.93909 36891 ft 483 kts 143°
2026-05-06 16:56 54.05270 10.01014 36885 ft 483 kts 143°
2026-05-06 16:57 54.00095 10.08293 36891 ft 483 kts 143°
2026-05-06 16:57 53.94913 10.15555 36890 ft 483 kts 143°
2026-05-06 16:58 53.89720 10.22810 36887 ft 483 kts 144°
2026-05-06 16:58 53.84552 10.30005 36887 ft 483 kts 144°
2026-05-06 16:59 53.79357 10.37214 36869 ft 483 kts 144°
2026-05-06 16:59 53.74155 10.44410 36883 ft 483 kts 144°
2026-05-06 17:00 53.68952 10.51583 36877 ft 482 kts 144°
2026-05-06 17:00 53.63757 10.58722 36887 ft 482 kts 144°
2026-05-06 17:01 53.58551 10.65851 36873 ft 482 kts 144°
2026-05-06 17:01 53.53340 10.72965 36865 ft 482 kts 144°
2026-05-06 17:02 53.48133 10.80051 36862 ft 482 kts 144°
2026-05-06 17:02 53.42917 10.87124 36853 ft 482 kts 144°
2026-05-06 17:03 53.37715 10.94158 36850 ft 481 kts 144°
2026-05-06 17:03 53.32648 11.00986 36844 ft 480 kts 144°
2026-05-06 17:04 53.27444 11.07976 36848 ft 480 kts 145°
2026-05-06 17:04 53.22232 11.14956 36841 ft 481 kts 145°
2026-05-06 17:05 53.17001 11.21941 36832 ft 480 kts 145°
2026-05-06 17:05 53.11816 11.28842 36827 ft 480 kts 145°
2026-05-06 17:06 53.06546 11.35676 36837 ft 480 kts 146°
2026-05-06 17:06 53.01269 11.42465 36839 ft 480 kts 146°
2026-05-06 17:07 52.95999 11.49257 36833 ft 480 kts 146°
2026-05-06 17:07 52.90716 11.56032 36833 ft 480 kts 146°
2026-05-06 17:08 52.85446 11.62743 36826 ft 480 kts 146°
2026-05-06 17:08 52.80147 11.69472 36821 ft 480 kts 146°
2026-05-06 17:09 52.74850 11.76184 36825 ft 479 kts 146°
2026-05-06 17:09 52.69552 11.82878 36823 ft 479 kts 146°
2026-05-06 17:10 52.64257 11.89548 36816 ft 478 kts 146°
2026-05-06 17:10 52.59185 11.96700 36828 ft 480 kts 142°
2026-05-06 17:11 52.54344 12.03848 36823 ft 480 kts 142°
2026-05-06 17:11 52.49359 12.11153 36814 ft 480 kts 143°
2026-05-06 17:12 52.44363 12.18411 36821 ft 479 kts 143°
2026-05-06 17:12 52.39396 12.25600 36817 ft 480 kts 143°
2026-05-06 17:13 52.34387 12.32832 36812 ft 480 kts 143°
2026-05-06 17:13 52.29649 12.40581 36834 ft 483 kts 137°
2026-05-06 17:14 52.25012 12.48510 36817 ft 481 kts 141°
2026-05-06 17:14 52.20068 12.55823 36811 ft 479 kts 143°
2026-05-06 17:15 52.15099 12.63102 36815 ft 480 kts 142°
2026-05-06 17:15 52.10155 12.70400 36813 ft 480 kts 142°
2026-05-06 17:16 52.05201 12.77673 36795 ft 480 kts 142°
2026-05-06 17:16 52.00272 12.84886 36789 ft 479 kts 143°
2026-05-06 17:17 51.95334 12.92098 36800 ft 478 kts 143°
2026-05-06 17:17 51.90386 12.99300 36804 ft 478 kts 143°
2026-05-06 17:18 51.85571 13.06297 36802 ft 477 kts 143°
2026-05-06 17:18 51.80627 13.13467 36774 ft 477 kts 143°
2026-05-06 17:19 51.75683 13.20607 36749 ft 476 kts 143°
2026-05-06 17:19 51.70743 13.27718 36769 ft 475 kts 143°
2026-05-06 17:20 51.65813 13.34795 36780 ft 475 kts 143°
2026-05-06 17:20 51.60888 13.41821 36779 ft 475 kts 143°
2026-05-06 17:21 51.55932 13.48866 36778 ft 476 kts 143°
2026-05-06 17:21 51.50953 13.55931 36782 ft 476 kts 144°
2026-05-06 17:22 51.46019 13.62912 36779 ft 475 kts 144°
2026-05-06 17:22 51.41049 13.69915 36780 ft 475 kts 144°
2026-05-06 17:23 51.36080 13.76898 36769 ft 476 kts 144°
2026-05-06 17:23 51.31103 13.83879 36754 ft 476 kts 144°
2026-05-06 17:24 51.26125 13.90834 36752 ft 476 kts 144°
2026-05-06 17:24 51.21121 13.97795 36752 ft 475 kts 144°
2026-05-06 17:25 51.16280 14.04513 36751 ft 476 kts 144°
2026-05-06 17:25 51.11291 14.11421 36763 ft 476 kts 144°
2026-05-06 17:26 51.06290 14.18325 36761 ft 477 kts 144°
2026-05-06 17:26 51.01276 14.25238 36757 ft 477 kts 144°
2026-05-06 17:27 50.96287 14.32110 36759 ft 476 kts 144°
2026-05-06 17:27 50.91309 14.38965 36741 ft 477 kts 144°
2026-05-06 17:28 50.86375 14.45982 36750 ft 476 kts 143°
2026-05-06 17:28 50.81487 14.52998 36759 ft 475 kts 143°
2026-05-06 17:29 50.76582 14.59994 36755 ft 475 kts 143°
2026-05-06 17:29 50.71677 14.66946 36743 ft 474 kts 144°
2026-05-06 17:30 50.66878 14.73720 36750 ft 473 kts 144°
2026-05-06 17:30 50.61966 14.80633 36735 ft 473 kts 144°
2026-05-06 17:31 50.57049 14.87534 36761 ft 473 kts 144°
2026-05-06 17:31 50.52304 14.94175 36753 ft 473 kts 144°
2026-05-06 17:32 50.47600 15.00741 36740 ft 473 kts 144°
2026-05-06 17:32 50.42702 15.07560 36754 ft 473 kts 144°
2026-05-06 17:33 50.38022 15.14055 36763 ft 474 kts 144°
2026-05-06 17:33 50.34144 15.19424 36761 ft 474 kts 144°
2026-05-06 17:34 50.28445 15.27293 36757 ft 474 kts 144°
2026-05-06 17:34 50.24348 15.32933 36750 ft 474 kts 144°
2026-05-06 17:35 50.19528 15.39552 36744 ft 474 kts 145°
2026-05-06 17:35 50.15169 15.45520 36765 ft 475 kts 145°
2026-05-06 17:36 50.07716 15.55693 36762 ft 476 kts 145°
2026-05-06 17:36 50.02825 15.62344 36753 ft 476 kts 145°
2026-05-06 17:37 49.98246 15.68555 36718 ft 476 kts 145°
2026-05-06 17:37 49.93250 15.75313 36736 ft 476 kts 145°
2026-05-06 17:38 49.88324 15.81957 36744 ft 476 kts 145°
2026-05-06 17:38 49.83327 15.88678 36740 ft 476 kts 145°
2026-05-06 17:39 49.78665 15.94930 36744 ft 476 kts 145°
2026-05-06 17:39 49.73792 16.01450 36701 ft 476 kts 146°
2026-05-06 17:40 49.68840 16.08053 36735 ft 478 kts 146°
2026-05-06 17:40 49.64318 16.14067 36736 ft 479 kts 146°
2026-05-06 17:41 49.59215 16.20836 36734 ft 481 kts 146°
2026-05-06 17:41 49.54207 16.27463 36736 ft 481 kts 146°
2026-05-06 17:42 49.49122 16.34173 36715 ft 481 kts 146°
2026-05-06 17:42 49.44276 16.40549 36722 ft 481 kts 146°
2026-05-06 17:43 49.39181 16.47235 36729 ft 481 kts 146°
2026-05-06 17:43 49.34083 16.53903 36746 ft 481 kts 146°
2026-05-06 17:44 49.29371 16.60052 36729 ft 481 kts 146°
2026-05-06 17:44 49.24318 16.66625 36730 ft 481 kts 146°
2026-05-06 17:45 49.19381 16.73033 36734 ft 482 kts 145°
2026-05-06 17:45 49.14465 16.79394 36741 ft 482 kts 145°
2026-05-06 17:46 49.09893 16.85296 36753 ft 483 kts 145°
2026-05-06 17:46 49.04752 16.91914 36747 ft 483 kts 145°
2026-05-06 17:47 48.99885 16.98165 36744 ft 484 kts 146°
2026-05-06 17:47 48.95041 17.04813 36765 ft 487 kts 141°
2026-05-06 17:48 48.90499 17.11778 36754 ft 489 kts 140°
2026-05-06 17:48 48.85734 17.19141 36763 ft 488 kts 140°
2026-05-06 17:49 48.81089 17.26222 36775 ft 487 kts 140°
2026-05-06 17:49 48.76365 17.33349 36768 ft 487 kts 140°
2026-05-06 17:50 48.71508 17.40646 36775 ft 487 kts 140°
2026-05-06 17:50 48.66703 17.47844 36776 ft 486 kts 140°
2026-05-06 17:51 48.61920 17.54993 36769 ft 486 kts 141°
2026-05-06 17:51 48.57145 17.62113 36768 ft 485 kts 141°
2026-05-06 17:52 48.52325 17.69277 36777 ft 485 kts 141°
2026-05-06 17:52 48.47619 17.76252 36795 ft 485 kts 141°
2026-05-06 17:53 48.42769 17.83421 36798 ft 485 kts 141°
2026-05-06 17:53 48.37943 17.90536 36796 ft 486 kts 141°
2026-05-06 17:54 48.33137 17.97600 36792 ft 485 kts 140°
2026-05-06 17:54 48.28434 18.04496 36808 ft 484 kts 141°
2026-05-06 17:55 48.23627 18.11523 36814 ft 483 kts 141°
2026-05-06 17:55 48.18836 18.18509 36820 ft 482 kts 141°
2026-05-06 17:56 48.14046 18.25473 36814 ft 482 kts 141°
2026-05-06 17:56 48.09227 18.32459 36824 ft 482 kts 141°
2026-05-06 17:57 48.04406 18.39429 36841 ft 482 kts 141°
2026-05-06 17:57 47.99585 18.46382 36843 ft 483 kts 141°
2026-05-06 17:58 47.94745 18.53344 36831 ft 483 kts 140°
2026-05-06 17:58 47.89903 18.60288 36853 ft 483 kts 140°
2026-05-06 17:59 47.85064 18.67213 36854 ft 484 kts 141°
2026-05-06 17:59 47.80218 18.74131 36861 ft 484 kts 140°
2026-05-06 18:00 47.75388 18.81236 36882 ft 487 kts 139°
2026-05-06 18:00 47.73021 18.84769 37122 ft 488 kts 139°
2026-05-06 18:00 47.70660 18.88295 37543 ft 485 kts 139°
2026-05-06 18:01 47.68331 18.91766 37968 ft 482 kts 139°
2026-05-06 18:01 47.65919 18.95349 38404 ft 480 kts 139°
2026-05-06 18:01 47.63549 18.98857 38737 ft 478 kts 139°
2026-05-06 18:01 47.61353 19.02095 38805 ft 480 kts 139°
2026-05-06 18:02 47.56699 19.08936 38875 ft 482 kts 139°
2026-05-06 18:02 47.52047 19.15762 38864 ft 478 kts 139°
2026-05-06 18:03 47.47423 19.22528 38876 ft 477 kts 139°
2026-05-06 18:03 47.42733 19.29371 38875 ft 476 kts 139°
2026-05-06 18:04 47.38015 19.36237 38887 ft 476 kts 139°
2026-05-06 18:04 47.33702 19.42497 38886 ft 477 kts 139°
2026-05-06 18:05 47.28958 19.49366 38894 ft 478 kts 140°
2026-05-06 18:05 47.24364 19.56001 38893 ft 480 kts 140°
2026-05-06 18:06 47.19662 19.62774 38897 ft 482 kts 140°
2026-05-06 18:06 47.14872 19.69657 38897 ft 483 kts 140°
2026-05-06 18:07 47.10052 19.76565 38901 ft 484 kts 140°
2026-05-06 18:07 47.05327 19.83319 38909 ft 485 kts 140°
2026-05-06 18:08 47.00488 19.90216 38909 ft 485 kts 140°
2026-05-06 18:08 46.95677 19.97057 38909 ft 485 kts 140°
2026-05-06 18:09 46.90969 20.03732 38892 ft 485 kts 140°
2026-05-06 18:09 46.86122 20.10587 38897 ft 485 kts 140°
2026-05-06 18:10 46.81276 20.17422 38894 ft 485 kts 140°
2026-05-06 18:10 46.76400 20.24282 38891 ft 485 kts 140°
2026-05-06 18:11 46.72366 20.29943 38899 ft 485 kts 140°
2026-05-06 18:11 46.66680 20.37901 38901 ft 485 kts 140°
2026-05-06 18:12 46.61840 20.44656 38899 ft 485 kts 140°
2026-05-06 18:12 46.56958 20.51452 38899 ft 484 kts 140°
2026-05-06 18:13 46.52088 20.58214 38891 ft 484 kts 140°
2026-05-06 18:13 46.48028 20.63837 38903 ft 484 kts 140°
2026-05-06 18:14 46.43157 20.70568 38915 ft 484 kts 140°
2026-05-06 18:14 46.38267 20.77307 38913 ft 485 kts 140°
2026-05-06 18:15 46.33373 20.84034 38918 ft 485 kts 140°
2026-05-06 18:15 46.28466 20.90761 38912 ft 486 kts 140°
2026-05-06 18:16 46.23542 20.97495 38918 ft 487 kts 140°
2026-05-06 18:16 46.18776 21.03995 38915 ft 488 kts 140°
2026-05-06 18:17 46.13857 21.10688 38913 ft 488 kts 140°
2026-05-06 18:17 46.08913 21.17397 38905 ft 488 kts 140°
2026-05-06 18:18 46.03965 21.24094 38918 ft 489 kts 140°
2026-05-06 18:18 45.99060 21.30716 38919 ft 490 kts 140°
2026-05-06 18:19 45.94087 21.37414 38918 ft 489 kts 140°
2026-05-06 18:19 45.89107 21.44102 38904 ft 490 kts 140°
2026-05-06 18:20 45.84134 21.50764 38915 ft 490 kts 140°
2026-05-06 18:20 45.79137 21.57441 38936 ft 491 kts 140°
2026-05-06 18:21 45.74134 21.64110 38934 ft 491 kts 140°
2026-05-06 18:21 45.69126 21.70767 38925 ft 492 kts 140°
2026-05-06 18:22 45.64115 21.77410 38941 ft 492 kts 140°
2026-05-06 18:22 45.59121 21.84016 38943 ft 492 kts 140°
2026-05-06 18:23 45.54085 21.90660 38956 ft 493 kts 140°
2026-05-06 18:23 45.49035 21.97304 38943 ft 494 kts 140°
2026-05-06 18:24 45.44110 22.03769 38962 ft 494 kts 140°
2026-05-06 18:24 45.39051 22.10393 38976 ft 495 kts 140°
2026-05-06 18:25 45.33986 22.17007 38973 ft 494 kts 140°
2026-05-06 18:25 45.28897 22.23635 38975 ft 495 kts 140°
2026-05-06 18:26 45.23825 22.30226 38991 ft 495 kts 140°
2026-05-06 18:26 45.18735 22.36822 38986 ft 496 kts 140°
2026-05-06 18:27 45.13671 22.43369 38996 ft 496 kts 140°
2026-05-06 18:27 45.08543 22.49982 38991 ft 497 kts 140°
2026-05-06 18:28 45.03417 22.56574 38992 ft 497 kts 140°
2026-05-06 18:28 44.98322 22.63111 38976 ft 498 kts 140°